Home   Weather   Bietigheim-Bissingen   Past weeks

Flag for Germany Past Weather in Bietigheim-Bissingen, Baden-Württemberg, Germany — Yesterday and Last 2 Weeks

Now
54 °F

Clear.


Feels Like: 49 °F
Forecast: 40 / 49 °F
Wind: 14 mph from South

Location: Stuttgart-Echterdingen

Current Time: Feb 27, 2017 at 10:00:49 pm

Latest Report: Feb 27, 2017 at 9:20 pm


Visibility: 10 mi

Pressure: 29.47 "Hg

Humidity: 47%

Dew Point: 34 °F

Location of Bietigheim-BissingenLocation

Past Weather in Bietigheim-Bissingen — Graph

°F

Bietigheim-Bissingen Temperature Yesterday

Maximum temperature yesterday: 54 °F (at 3:50 pm)
Minimum temperature yesterday: 32 °F (at 5:20 am)
Average temperature yesterday: 42 °F

High & Low Weather Summary for the Past Weeks

 TemperatureHumidityPressure
High64 °F (Feb 23, 2:20 pm)100% (Feb 15, 6:50 am)30.54 "Hg (Feb 15, 6:50 am)
Low23 °F (Feb 14, 5:50 am)27% (Feb 23, 2:50 pm)29.47 "Hg (Feb 27, 8:50 pm)
Average42 °F77%30.14 "Hg
* Reported Feb 12 8:20 pm — Feb 27 8:50 pm, Bietigheim-Bissingen, Weather by CustomWeather, © 2017

Note: Actual official high and low records may vary slightly from our data, if they occured in-between our weather recording intervals... More about our weather records

Advertising

Bietigheim-Bissingen Weather History for the Previous 24 Hours

Scroll right to see more
 ConditionsComfort  
Time TempWeatherWind HumidityBarometerVisibility
8:50 pm
Mon, Feb 27
52 °FClear.10 mph50%29.47 "Hg10 mi
8:20 pm50 °FClear.8 mph54%29.50 "Hg10 mi
7:50 pm52 °FPassing clouds.6 mph54%29.50 "HgN/A
7:20 pm54 °FClear.3 mph51%29.53 "Hg10 mi
6:50 pm54 °FPassing clouds.3 mph51%29.53 "HgN/A
6:20 pm54 °FClear.7 mph51%29.53 "Hg10 mi
5:50 pm57 °FPassing clouds.9 mph44%29.56 "HgN/A
5:20 pm59 °FPassing clouds.12 mph42%29.56 "HgN/A
4:50 pm59 °FPassing clouds.9 mph42%29.56 "HgN/A
4:20 pm61 °FPassing clouds.6 mph39%29.56 "HgN/A
3:50 pm61 °FPassing clouds.8 mph39%29.56 "HgN/A
3:20 pm61 °FPassing clouds.9 mph39%29.59 "HgN/A
2:50 pm59 °FPassing clouds.9 mph42%29.62 "HgN/A
2:20 pm59 °FPassing clouds.9 mph45%29.62 "HgN/A
1:50 pm59 °FSunny.7 mph42%29.65 "Hg10 mi
1:20 pm57 °FPassing clouds.5 mph44%29.68 "HgN/A
12:50 pm57 °FPassing clouds.6 mph44%29.71 "HgN/A
12:20 pm55 °FPassing clouds.5 mph47%29.71 "HgN/A
11:50 am54 °FPassing clouds.7 mph54%29.74 "HgN/A
11:20 am50 °FSunny.7 mph62%29.77 "Hg10 mi
10:50 am48 °FPassing clouds.5 mph62%29.77 "HgN/A
10:20 am45 °FPassing clouds.3 mph71%29.80 "HgN/A
9:50 am41 °FSunny.2 mph70%29.80 "Hg10 mi
9:20 am37 °FSunny.2 mph75%29.83 "Hg10 mi
8:50 am37 °FPassing clouds.2 mph81%29.83 "HgN/A
8:20 am34 °FPassing clouds.1 mph87%29.83 "HgN/A
7:50 am30 °FPassing clouds.1 mph93%29.86 "HgN/A
7:20 am30 °FSunny.2 mph93%29.86 "Hg10 mi
6:50 am28 °FClear.1 mph93%29.86 "Hg10 mi
6:20 am30 °FPassing clouds.2 mph86%29.86 "HgN/A
5:50 am30 °FPassing clouds.3 mph93%29.89 "HgN/A
5:20 am30 °FPassing clouds.2 mph93%29.89 "HgN/A
4:50 am30 °FPassing clouds.1 mph93%29.89 "HgN/A
4:20 am32 °FPassing clouds.2 mph87%29.89 "HgN/A
3:50 am32 °FPassing clouds.2 mph87%29.92 "HgN/A
3:20 am32 °FPassing clouds.2 mph87%29.92 "HgN/A
2:50 am32 °FPassing clouds.2 mph87%29.92 "HgN/A
2:20 am32 °FPassing clouds.1 mph87%29.92 "HgN/A
1:50 am34 °FPassing clouds.3 mph81%29.95 "HgN/A
1:20 am36 °FPassing clouds.2 mph75%29.95 "HgN/A
12:50 am37 °FPassing clouds.2 mph70%29.95 "HgN/A
12:20 am39 °FPassing clouds.2 mph70%29.95 "HgN/A
11:50 pm
Sun, Feb 26
39 °FPassing clouds.1 mph65%29.95 "HgN/A
11:20 pm37 °FPassing clouds.1 mph75%29.95 "HgN/A
10:50 pm39 °FPassing clouds.2 mph65%29.95 "HgN/A
10:20 pm37 °FClear.2 mph70%29.95 "Hg10 mi
Weather by CustomWeather, © 2017

See weather overviewHow to use our weather pages